Radiation Dose at Monitoring Post of Fukushima Daini Nuclear Power Station
Date,Time,MP-1(microSv/h),MP-2(microSv/h),MP-3(microSv/h),MP-4(microSv/h),MP-5(microSv/h),MP-6(microSv/h),MP-7(microSv/h),Wind Direction,Wind Velocity(m/s),Rain
2015/10/06,00:00,0.493,0.284,0.508,0.469,0.453,0.229,0.199,-,CALM,No
2015/10/06,00:10,0.492,0.283,0.510,0.469,0.451,0.230,0.200,-,CALM,No
2015/10/06,00:20,0.492,0.285,0.509,0.468,0.450,0.229,0.199,-,CALM,No
2015/10/06,00:30,0.492,0.284,0.510,0.471,0.454,0.230,0.200,-,CALM,No
2015/10/06,00:40,0.490,0.283,0.510,0.468,0.450,0.229,0.199,-,CALM,No
2015/10/06,00:50,0.494,0.283,0.508,0.468,0.456,0.230,0.200,-,CALM,No
2015/10/06,01:00,0.489,0.283,0.511,0.469,0.451,0.229,0.199,-,CALM,No
2015/10/06,01:10,0.492,0.283,0.510,0.468,0.452,0.230,0.200,north-northeast,0.8,No
2015/10/06,01:20,0.490,0.283,0.511,0.468,0.451,0.229,0.200,north,1.1,No
2015/10/06,01:30,0.493,0.284,0.509,0.468,0.450,0.229,0.200,north-northwest,3.6,No
2015/10/06,01:40,0.491,0.283,0.508,0.470,0.453,0.229,0.201,north-northwest,4.3,No
2015/10/06,01:50,0.490,0.283,0.513,0.470,0.451,0.228,0.200,north,4.9,No
2015/10/06,02:00,0.494,0.284,0.508,0.468,0.453,0.230,0.200,north,5.7,No
2015/10/06,02:10,0.490,0.285,0.511,0.470,0.451,0.229,0.200,north,6.7,No
2015/10/06,02:20,0.493,0.284,0.508,0.467,0.450,0.229,0.200,north-northwest,6.7,No
2015/10/06,02:30,0.492,0.284,0.511,0.470,0.453,0.229,0.201,north,6.5,No
2015/10/06,02:40,0.492,0.284,0.511,0.468,0.452,0.229,0.200,north,6.7,No
2015/10/06,02:50,0.492,0.283,0.507,0.469,0.450,0.229,0.200,north-northwest,6.5,No
2015/10/06,03:00,0.491,0.284,0.512,0.470,0.451,0.229,0.201,north-northwest,6.7,No
2015/10/06,03:10,0.494,0.283,0.508,0.466,0.450,0.230,0.200,north-northwest,5.9,No
2015/10/06,03:20,0.488,0.283,0.510,0.471,0.453,0.230,0.200,north-northwest,5.8,No
2015/10/06,03:30,0.493,0.282,0.509,0.468,0.451,0.229,0.200,north-northwest,5.3,No
2015/10/06,03:40,0.489,0.282,0.509,0.469,0.451,0.230,0.200,north-northwest,5.6,No
2015/10/06,03:50,0.492,0.284,0.510,0.468,0.451,0.229,0.200,north-northwest,5.5,No
2015/10/06,04:00,0.493,0.282,0.508,0.468,0.451,0.229,0.199,north-northwest,5.8,No
2015/10/06,04:10,0.489,0.283,0.512,0.469,0.452,0.229,0.200,north-northwest,6.4,No
2015/10/06,04:20,0.492,0.282,0.508,0.467,0.453,0.229,0.201,north-northwest,5.8,No
2015/10/06,04:30,0.491,0.283,0.511,0.469,0.453,0.229,0.200,north-northwest,5.7,No
2015/10/06,04:40,0.495,0.283,0.508,0.467,0.453,0.230,0.200,north-northwest,5.7,No
2015/10/06,04:50,0.490,0.281,0.509,0.469,0.453,0.229,0.200,north-northwest,5.3,No
2015/10/06,05:00,0.494,0.283,0.509,0.467,0.453,0.228,0.199,north-northwest,5.8,No
2015/10/06,05:10,0.490,0.283,0.508,0.468,0.453,0.230,0.199,north-northwest,5.4,No
2015/10/06,05:20,0.492,0.284,0.509,0.470,0.453,0.230,0.200,north-northwest,5.3,No
2015/10/06,05:30,0.490,0.281,0.509,0.466,0.451,0.227,0.200,north-northwest,4.9,No
2015/10/06,05:40,0.493,0.283,0.512,0.470,0.454,0.228,0.200,north,3.6,No
2015/10/06,05:50,0.491,0.284,0.507,0.467,0.451,0.229,0.201,north,3.1,No
2015/10/06,06:00,0.491,0.281,0.511,0.468,0.451,0.229,0.199,north-northwest,2.8,No
2015/10/06,06:10,0.492,0.283,0.507,0.468,0.453,0.230,0.199,north,3.6,No
2015/10/06,06:20,0.489,0.284,0.509,0.465,0.450,0.229,0.200,north,3.4,No
2015/10/06,06:30,0.492,0.283,0.511,0.472,0.452,0.228,0.201,north,3.9,No
2015/10/06,06:40,0.489,0.284,0.507,0.466,0.451,0.229,0.199,north-northwest,3.6,No
2015/10/06,06:50,0.492,0.283,0.511,0.468,0.452,0.228,0.199,north-northwest,4.1,No
2015/10/06,07:00,0.489,0.284,0.509,0.468,0.451,0.229,0.200,north,5.2,No
2015/10/06,07:10,0.492,0.284,0.512,0.466,0.451,0.228,0.199,north-northwest,5.2,No
2015/10/06,07:20,0.490,0.282,0.507,0.468,0.453,0.229,0.200,north-northwest,4.7,No
2015/10/06,07:30,0.493,0.284,0.512,0.466,0.450,0.229,0.200,north-northwest,4.4,No
2015/10/06,07:40,0.490,0.283,0.508,0.468,0.454,0.229,0.198,north,3.9,No
2015/10/06,07:50,0.492,0.282,0.511,0.464,0.450,0.230,0.200,north,4.0,No
2015/10/06,08:00,0.490,0.282,0.509,0.469,0.454,0.230,0.201,north,4.2,No
2015/10/06,08:10,0.490,0.284,0.510,0.466,0.450,0.229,0.198,north,4.8,No
2015/10/06,08:20,0.495,0.282,0.510,0.468,0.453,0.228,0.199,north,5.3,No
2015/10/06,08:30,0.493,0.283,0.509,0.467,0.450,0.229,0.200,north,4.0,No
2015/10/06,08:40,0.492,0.283,0.509,0.464,0.455,0.230,0.199,north,5.3,No
2015/10/06,08:50,0.491,0.281,0.508,0.468,0.450,0.230,0.200,north-northwest,5.4,No
2015/10/06,09:00,0.491,0.283,0.509,0.463,0.453,0.227,0.199,north,5.0,No
2015/10/06,09:10,0.491,0.282,0.509,0.465,0.451,0.229,0.199,north,5.6,No
2015/10/06,09:20,0.487,0.282,0.510,0.467,0.449,0.229,0.200,north-northwest,5.8,No
2015/10/06,09:30,0.492,0.285,0.510,0.464,0.453,0.228,0.197,north,4.8,No
2015/10/06,09:40,0.491,0.283,0.509,0.462,0.451,0.228,0.198,north-northwest,4.4,No
2015/10/06,09:50,0.488,0.282,0.509,0.466,0.448,0.229,0.199,north,4.7,No
2015/10/06,10:00,0.494,0.285,0.506,0.466,0.454,0.228,0.201,north,5.3,No
2015/10/06,10:10,0.488,0.281,0.509,0.463,0.451,0.229,0.199,north-northeast,5.3,No
2015/10/06,10:20,0.494,0.284,0.506,0.469,0.452,0.229,0.201,north-northeast,4.9,No
2015/10/06,10:30,0.492,0.284,0.509,0.470,0.453,0.228,0.200,north,5.0,No
2015/10/06,10:40,0.489,0.282,0.509,0.466,0.449,0.229,0.200,north,5.3,No
2015/10/06,10:50,0.494,0.284,0.503,0.463,0.449,0.229,0.200,north,5.1,No
2015/10/06,11:00,0.488,0.283,0.510,0.472,0.456,0.229,0.201,north-northeast,4.6,No
2015/10/06,11:10,0.494,0.284,0.509,0.466,0.450,0.229,0.199,north-northeast,3.9,No
2015/10/06,11:20,0.493,0.284,0.509,0.468,0.457,0.228,0.201,north,4.9,No
2015/10/06,11:30,0.490,0.283,0.512,0.473,0.454,0.229,0.200,north-northeast,4.4,No
2015/10/06,11:40,0.495,0.284,0.506,0.466,0.449,0.229,0.199,north,3.9,No
2015/10/06,11:50,0.490,0.284,0.509,0.469,0.457,0.229,0.201,north,3.9,No
2015/10/06,12:00,0.495,0.282,0.514,0.470,0.454,0.230,0.200,north,5.0,No
2015/10/06,12:10,0.491,0.284,0.507,0.467,0.448,0.228,0.199,north,3.6,No
2015/10/06,12:20,0.487,0.283,0.504,0.463,0.454,0.229,0.201,north-northeast,7.2,No
2015/10/06,12:30,0.496,0.282,0.510,0.468,0.454,0.229,0.201,north-northeast,7.1,No
2015/10/06,12:40,0.490,0.285,0.508,0.469,0.449,0.229,0.200,north-northeast,8.5,No
2015/10/06,12:50,0.492,0.283,0.508,0.466,0.456,0.230,0.199,north-northeast,8.7,No
2015/10/06,13:00,0.496,0.282,0.513,0.470,0.454,0.229,0.200,north,5.6,No
2015/10/06,13:10,0.490,0.284,0.508,0.471,0.453,0.230,0.201,north,5.8,No
2015/10/06,13:20,0.495,0.283,0.511,0.467,0.457,0.230,0.199,north,6.7,No
2015/10/06,13:30,0.490,0.286,0.512,0.472,0.450,0.228,0.201,north,5.4,No
2015/10/06,13:40,0.493,0.283,0.507,0.470,0.456,0.230,0.200,north,6.7,No
2015/10/06,13:50,0.494,0.285,0.515,0.469,0.454,0.229,0.198,north,6.4,No
2015/10/06,14:00,0.491,0.284,0.509,0.473,0.453,0.229,0.201,north,6.1,No
2015/10/06,14:10,0.496,0.283,0.511,0.466,0.457,0.230,0.199,north,5.0,No
2015/10/06,14:20,0.491,0.284,0.511,0.470,0.450,0.228,0.202,north,6.4,No
2015/10/06,14:30,0.497,0.284,0.507,0.471,0.456,0.231,0.200,north,6.2,No
2015/10/06,14:40,0.493,0.286,0.514,0.467,0.452,0.229,0.201,north,5.8,No
2015/10/06,14:50,0.494,0.283,0.508,0.470,0.455,0.230,0.202,north,5.3,No
2015/10/06,15:00,0.495,0.287,0.515,0.469,0.453,0.230,0.200,north,4.5,No
2015/10/06,15:10,0.493,0.283,0.510,0.474,0.457,0.231,0.201,north,5.6,No
2015/10/06,15:20,0.493,0.285,0.512,0.466,0.455,0.231,0.200,north,5.4,No
2015/10/06,15:30,0.489,0.285,0.512,0.471,0.453,0.229,0.201,north,4.8,No
2015/10/06,15:40,0.496,0.284,0.509,0.470,0.455,0.230,0.199,north-northeast,6.9,No
2015/10/06,15:50,0.491,0.284,0.514,0.470,0.451,0.229,0.200,north-northeast,7.4,No
2015/10/06,16:00,0.495,0.283,0.508,0.472,0.455,0.231,0.200,north-northeast,6.2,No
2015/10/06,16:10,0.492,0.284,0.512,0.466,0.452,0.230,0.201,north-northeast,6.7,No
2015/10/06,16:20,0.495,0.283,0.508,0.473,0.456,0.229,0.201,north-northeast,6.5,No
2015/10/06,16:30,0.493,0.285,0.512,0.467,0.451,0.230,0.201,north-northeast,6.8,No
2015/10/06,16:40,0.492,0.281,0.511,0.471,0.455,0.228,0.200,north-northeast,7.1,No
2015/10/06,16:50,0.494,0.286,0.510,0.467,0.452,0.231,0.199,north-northeast,7.9,No
2015/10/06,17:00,0.491,0.284,0.513,0.472,0.456,0.229,0.200,northeast,6.8,No
2015/10/06,17:10,0.496,0.285,0.509,0.470,0.454,0.229,0.200,north-northeast,7.1,No
2015/10/06,17:20,0.491,0.284,0.513,0.472,0.454,0.229,0.201,north-northeast,6.9,No
2015/10/06,17:30,0.496,0.286,0.507,0.472,0.453,0.231,0.201,north-northeast,7.3,No
2015/10/06,17:40,0.490,0.283,0.514,0.469,0.456,0.229,0.201,north,5.7,No
2015/10/06,17:50,0.495,0.286,0.509,0.470,0.453,0.230,0.201,north-northeast,6.4,No
2015/10/06,18:00,0.494,0.284,0.515,0.470,0.454,0.231,0.200,north,5.5,No
2015/10/06,18:10,0.495,0.285,0.508,0.470,0.454,0.230,0.199,north-northeast,4.4,No
2015/10/06,18:20,0.493,0.284,0.513,0.470,0.453,0.230,0.200,north,3.9,No
2015/10/06,18:30,0.494,0.285,0.507,0.471,0.454,0.231,0.201,north,3.3,No
2015/10/06,18:40,0.494,0.284,0.514,0.470,0.455,0.230,0.201,north,4.4,No
2015/10/06,18:50,0.492,0.286,0.509,0.472,0.453,0.230,0.201,north,4.3,No
2015/10/06,19:00,0.494,0.283,0.514,0.468,0.456,0.229,0.200,north,3.9,No
2015/10/06,19:10,0.492,0.285,0.510,0.474,0.452,0.230,0.201,north,5.0,No
2015/10/06,19:20,0.494,0.283,0.514,0.468,0.454,0.230,0.201,north,4.5,No
2015/10/06,19:30,0.493,0.286,0.510,0.472,0.454,0.231,0.202,north,4.5,No
2015/10/06,19:40,0.495,0.283,0.514,0.468,0.457,0.229,0.200,north,4.5,No
2015/10/06,19:50,0.492,0.285,0.510,0.473,0.453,0.231,0.201,north,6.1,No
2015/10/06,20:00,0.495,0.282,0.515,0.469,0.457,0.228,0.199,north,6.4,No
2015/10/06,20:10,0.493,0.284,0.510,0.473,0.452,0.230,0.201,north,7.0,No
2015/10/06,20:20,0.496,0.285,0.512,0.468,0.456,0.230,0.201,north,7.0,No
2015/10/06,20:30,0.492,0.284,0.511,0.472,0.450,0.230,0.200,north,6.8,No
2015/10/06,20:40,0.496,0.284,0.514,0.470,0.454,0.230,0.200,north,6.5,No
2015/10/06,20:50,0.492,0.284,0.510,0.472,0.453,0.230,0.201,north,6.5,No
2015/10/06,21:00,0.496,0.284,0.515,0.470,0.456,0.230,0.200,north,6.8,No
2015/10/06,21:10,0.493,0.284,0.508,0.473,0.451,0.230,0.199,north,7.3,No
2015/10/06,21:20,0.494,0.286,0.516,0.469,0.457,0.230,0.201,north,6.7,No
2015/10/06,21:30,0.493,0.284,0.508,0.473,0.452,0.231,0.199,north,6.7,No
2015/10/06,21:40,0.494,0.286,0.514,0.469,0.456,0.229,0.200,north,6.4,No
2015/10/06,21:50,0.493,0.283,0.510,0.473,0.452,0.230,0.201,north,6.2,No
2015/10/06,22:00,0.495,0.285,0.513,0.468,0.456,0.230,0.200,north,6.8,No
2015/10/06,22:10,0.493,0.283,0.510,0.474,0.454,0.230,0.200,north,6.7,No
2015/10/06,22:20,0.494,0.285,0.514,0.468,0.453,0.230,0.200,north,6.5,No
2015/10/06,22:30,0.492,0.284,0.510,0.473,0.452,0.230,0.201,north,6.4,No
2015/10/06,22:40,0.494,0.286,0.515,0.468,0.453,0.230,0.200,north-northeast,5.9,No
2015/10/06,22:50,0.492,0.282,0.508,0.472,0.453,0.230,0.200,north-northeast,7.2,No
2015/10/06,23:00,0.494,0.284,0.514,0.469,0.454,0.231,0.200,north-northeast,9.1,No
2015/10/06,23:10,0.493,0.285,0.510,0.474,0.454,0.231,0.200,north-northeast,9.8,No
2015/10/06,23:20,0.497,0.285,0.514,0.470,0.451,0.230,0.200,north-northeast,9.2,No
2015/10/06,23:30,0.491,0.283,0.511,0.473,0.454,0.230,0.201,north-northeast,9.3,No
2015/10/06,23:40,0.496,0.284,0.514,0.467,0.453,0.229,0.201,north-northeast,9.8,No
2015/10/06,23:50,0.489,0.284,0.510,0.474,0.455,0.229,0.200,north-northeast,11.5,No
